SPACEBEE-54 (47460 NORAD) Tracking and Keplerian Element Data

This shows tracking and keplerian element data for the satellite.

Feedback or suggestion? Click here.




ElementValue
Catalog47460
NameSPACEBEE-54
Epoch Orbit1257
Epoch Day105.76052421
Epoch Year2021
RAAN168.0665
Inclination97.4927
Eccentricity0.0010042
Argument of Perigee326.2093
Mean Anonmoly33.8497
Mean Motion15.13042224
Decay Rate2.346E-05
L11 47460U 21006AZ 21105.76052421 .00002346 00000-0 13629-3 0 9995
L22 47460 97.4927 168.0665 0010042 326.2093 33.8497 15.13042224 12578

Live tracking and technical data element details for SPACEBEE-54 (NORAD 47460). SPACEBEE-54 can be tracked NOW for your location showing map with azimuth and elevation plus other details from your city location.

Track the satellite on the map from your city or location and see movement details for azimuth, elevation, latitude, longitude, range, height, and movement on the map or in text.







IsCatalogInMostPopularTable: catalog: 47460, numindb: 14
Update: records affected: 1



GetName: 47460 SPACEBEE-54

Hit Count: updated at: Fri, 16 Apr 2021 10:11:02 GMT